Tracking 20941 objects as of 2-Jul-2020
HD Live streaming from Space Station
objects crossing your sky now

THORAD AGENA D DEB

Track THORAD AGENA D DEB now!
10-day predictions


NORAD ID: 4519
Int'l Code: 1969-082FW
Perigee: 582.1 km
Apogee: 615.6 km
Inclination: 70.0 °
Period: 96.5 minutes
Semi major axis: 6969 km
RCS: 0.0529 m2 (small)
Launch date: September 30, 1969
Source: United States (US)
Launch site: AIR FORCE WESTERN TEST RANGE (AFWTR)

Note: This is SATELLITE DEBRIS
aabbcc
Your satellite tracking list
Your tracking list is empty




NASA's NSSDC Master Catalog

Two Line Element Set (TLE):
1  4519U 69082FW  20184.50805742 +.00001091 +00000-0 +11567-3 0  9994
2  4519 070.0438 251.7729 0024030 044.1901 316.1169 14.91986210658854
Source of the keplerian elements: AFSPC